Location: ???????
(52.3000°N, 54.4667°E)
Time: 06:26:40
(UTC+00:00)

Cosmos 2082 - Pass Details

Date: 24 January 2020
Orbit: 833 x 856 km, 71.0° (Epoch: 23 February)

Event Time Altitude Azimuth Distance (km) Brightness Sun altitude
Rises 14:07:38 0° 175° (S) 3,368 7.0 -11.2°
Reaches altitude 10° 14:10:17 10° 166° (SSE) 2,440 6.1 -11.6°
Maximum altitude 14:15:07 31° 106° (ESE) 1,437 4.5 -12.3°
Enters shadow 14:18:50 15° 53° (NE) 2,099 5.2 -12.8°
